This is the latest recevied weather packets stored in our database for station/object K5KVN. If no packets are shown the sender has not sent any weather packets the latest 10 day(s).
| Time | Temp. | Humidity | Pressure | Rain* | Wind** | Luminosity | Snow |
|---|---|---|---|---|---|---|---|
| 1777568089 | 15.56° C | 65% | 1019.6 hPa | 0 mm | - | - | - |
| 1777567487 | 15.56° C | 64% | 1019.8 hPa | 0 mm | - | - | - |
| 1777566948 | 15° C | 63% | 1019.8 hPa | 0 mm | - | - | - |
| 1777566286 | 15° C | 67% | 1019.8 hPa | 0 mm | - | - | - |
| 1777565685 | 14.44° C | 63% | 1019.6 hPa | 0 mm | - | - | - |
| 1777565145 | 14.44° C | 63% | 1019.7 hPa | 0 mm | - | - | - |
| 1777564545 | 14.44° C | 65% | 1019.6 hPa | 0 mm | - | - | - |
| 1777563885 | 14.44° C | 65% | 1019.6 hPa | 0 mm | - | - | - |
| 1777563347 | 13.89° C | 65% | 1019.6 hPa | 0 mm | - | - | - |
| 1777562745 | 13.89° C | 66% | 1019.5 hPa | 0 mm | - | - | - |
| 1777562086 | 13.89° C | 67% | 1019.5 hPa | 0 mm | - | - | - |
| 1777561484 | 13.89° C | 68% | 1019.6 hPa | 0 mm | - | - | - |
| 1777560884 | 13.33° C | 67% | 1019.5 hPa | 0 mm | - | - | - |
| 1777560285 | 13.33° C | 66% | 1019.4 hPa | 0 mm | - | - | - |
| 1777559684 | 12.78° C | 66% | 1019.6 hPa | 0 mm | - | - | - |
| 1777559145 | 12.78° C | 73% | 1019.3 hPa | 0 mm | - | - | - |
| 1777558484 | 12.22° C | 73% | 1019 hPa | 0 mm | - | - | - |
| 1777557886 | 12.22° C | 70% | 1018.6 hPa | 0 mm | - | - | - |
| 1777557285 | 12.22° C | 72% | 1018.7 hPa | 0 mm | - | - | - |
| 1777556746 | 11.67° C | 75% | 1018.9 hPa | 0 mm | - | - | - |
| 1777556083 | 11.67° C | 78% | 1019 hPa | 0 mm | - | - | - |
| 1777555485 | 11.11° C | 79% | 1018.9 hPa | 0 mm | - | - | - |
| 1777554884 | 10.56° C | 82% | 1019.2 hPa | 0 mm | - | - | - |
| 1777554285 | 9.44° C | 87% | 1019.4 hPa | 0 mm | - | - | - |
| 1777553683 | 8.89° C | 90% | 1019.3 hPa | 0 mm | - | - | - |
* Rain latest hour (hover to see other rain measurements)
** Current wind speed in m/s (hover to see current wind gust speed)